Location: Angwan Shehu
(11.2514°N, 7.4613°E)
Time: 01:56:18
(UTC+00:00)

Explorer 11/Cluster Stage 4 - All Passes

Search period start: 21 April 2021 00:00
Search period end: 01 May 2021 00:00
Orbit: 467 x 1257 km, 28.8° (Epoch: 20 April)

Date Brightness Start Highest point End Pass type
(mag) Time Alt. Az. Time Alt. Az. Time Alt. Az.
21 Apr - 02:50:08 10° SW 02:53:56 64° SSE 02:57:30 10° ENE visible
21 Apr - 04:39:32 10° WNW 04:42:12 19° NNW 04:44:58 10° NNE visible
21 Apr - 10:06:13 10° NNW 10:10:41 26° NNE 10:16:01 10° ENE daylight
21 Apr - 11:53:32 10° WNW 11:59:43 80° NNE 12:07:21 10° ESE daylight
21 Apr - 13:42:43 10° W 13:49:00 34° SSW 13:56:05 10° SSE daylight
22 Apr - 00:52:31 10° S 00:54:45 14° SSE 00:56:49 10° ESE night (unlit)
22 Apr - 02:39:08 10° WSW 02:43:06 87° SSE 02:46:42 10° ENE visible
22 Apr - 04:29:08 10° WNW 04:31:25 16° NNW 04:33:44 10° NNE visible
22 Apr - 09:55:17 10° NW 09:59:44 28° NNE 10:05:06 10° E daylight
22 Apr - 11:42:39 10° WNW 11:48:38 88° SSW 11:56:05 10° ESE daylight
22 Apr - 13:32:07 10° W 13:37:54 28° SSW 13:44:26 10° SSE daylight
23 Apr - 00:40:39 10° SSW 00:43:54 18° SSE 00:46:48 10° ESE night (unlit)
23 Apr - 02:28:10 10° WSW 02:32:14 70° NNW 02:35:52 10° ENE visible
23 Apr - 04:18:51 10° NW 04:20:38 13° NNW 04:22:26 10° N visible
23 Apr - 09:44:21 10° NW 09:48:47 31° NNE 09:54:08 10° E daylight
23 Apr - 11:31:50 10° WNW 11:37:34 75° SSW 11:44:45 10° SE daylight
23 Apr - 13:21:39 10° WSW 13:26:50 23° SSW 13:32:41 10° SSE daylight
24 Apr - 00:29:00 10° SSW 00:33:02 24° SSE 00:36:30 10° E night (unlit)
24 Apr - 02:17:14 10° WSW 02:21:23 53° NNW 02:25:00 10° NE visible
24 Apr - 04:08:45 10° NW 04:09:52 11° NNW 04:10:58 10° N visible
24 Apr - 07:48:20 10° N 07:48:54 10° NNE 07:49:28 10° NNE daylight
24 Apr - 09:33:27 10° NW 09:37:49 35° NNE 09:43:11 10° E daylight
24 Apr - 11:21:03 10° WNW 11:26:31 62° SSW 11:33:23 10° SE daylight
24 Apr - 13:11:21 10° WSW 13:15:49 19° SSW 13:20:47 10° SSE daylight
25 Apr - 00:17:30 10° SW 00:22:10 32° SSE 00:26:03 10° E night (unlit)
25 Apr - 02:06:19 10° W 02:10:31 42° NNW 02:14:08 10° NE visible
25 Apr - 07:37:04 10° N 07:38:06 11° NNE 07:39:12 10° NNE daylight
25 Apr - 09:22:33 10° NW 09:26:52 40° NNE 09:32:11 10° E daylight
25 Apr - 11:10:21 10° WNW 11:15:30 50° SSW 11:21:58 10° SE daylight
25 Apr - 13:01:21 10° WSW 13:04:50 15° SSW 13:08:38 10° S daylight
25 Apr - 22:20:50 10° SSE 22:22:11 11° SSE 22:23:30 10° SE night (unlit)
26 Apr - 00:06:04 10° SW 00:11:17 42° SSE 00:15:29 10° E night (unlit)
26 Apr - 01:55:26 10° W 01:59:38 35° NNW 02:03:13 10° NE night (unlit)
26 Apr - 07:25:51 10° N 07:27:18 12° NNE 07:28:49 10° NE daylight
26 Apr - 09:11:41 10° NW 09:15:55 47° NNE 09:21:11 10° ESE daylight
26 Apr - 10:59:43 10° W 11:04:32 40° SSW 11:10:30 10° SE daylight
26 Apr - 12:51:59 10° SW 12:53:54 11° SSW 12:55:55 10° S daylight
26 Apr - 22:07:57 10° S 22:11:18 14° SSE 22:14:20 10° ESE night (unlit)
26 Apr - 23:54:42 10° SW 00:00:21 55° SSE 00:04:51 10° ENE night (unlit)
27 Apr - 01:44:35 10° W 01:48:44 29° NNW 01:52:18 10° NE night (unlit)
27 Apr - 07:14:42 10° N 07:16:29 13° NNE 07:18:24 10° NE daylight
27 Apr - 09:00:49 10° NW 09:04:59 57° NNE 09:10:08 10° ESE daylight
27 Apr - 10:49:09 10° W 10:53:35 31° SSW 10:58:58 10° SSE daylight
27 Apr - 21:55:50 10° SSW 22:00:23 19° SSE 22:04:21 10° ESE night (unlit)
27 Apr - 23:43:23 10° SW 23:49:24 70° SSE 23:54:09 10° ENE night (unlit)
28 Apr - 01:33:45 10° W 01:37:51 25° NNW 01:41:22 10° NNE night (unlit)
28 Apr - 07:03:34 10° NNW 07:05:40 14° NNE 07:07:55 10° NE daylight
28 Apr - 08:50:00 10° NW 08:54:04 71° NNE 08:59:04 10° ESE daylight
28 Apr - 10:38:44 10° W 10:42:39 24° SSW 10:47:20 10° SSE daylight
28 Apr - 21:43:58 10° SSW 21:49:25 24° SSE 21:54:06 10° E night (unlit)
28 Apr - 23:32:06 10° WSW 23:38:26 86° SSE 23:43:23 10° ENE night (unlit)
29 Apr - 01:22:56 10° WNW 01:26:57 23° NNW 01:30:26 10° NNE night (unlit)
29 Apr - 06:52:26 10° NNW 06:54:51 16° NNE 06:57:24 10° ENE daylight
29 Apr - 08:39:12 10° WNW 08:43:09 89° NNE 08:47:58 10° ESE daylight
29 Apr - 10:28:28 10° WSW 10:31:46 19° SSW 10:35:34 10° SSE daylight
29 Apr - 21:32:14 10° SSW 21:38:25 29° SSE 21:43:40 10° E night (unlit)
29 Apr - 23:20:52 10° WSW 23:27:26 80° NNW 23:32:35 10° ENE night (unlit)
30 Apr - 01:12:06 10° WNW 01:16:04 21° NNW 01:19:29 10° NNE night (unlit)
30 Apr - 06:41:21 10° NNW 06:44:02 19° NNE 06:46:52 10° ENE daylight
30 Apr - 08:28:26 10° WNW 08:32:16 70° SSW 08:36:51 10° SE daylight
30 Apr - 10:18:29 10° WSW 10:20:55 14° SSW 10:23:34 10° S daylight
30 Apr - 19:35:57 10° SSE 19:37:42 11° SSE 19:39:24 10° SE visible
30 Apr - 21:20:35 10° SW 21:27:22 36° SSE 21:33:05 10° E night (unlit)
30 Apr - 23:09:39 10° WSW 23:16:24 67° NNW 23:21:44 10° NE night (unlit)
